Regional Weather Roundup
Issued by NWS

Home | Current Version | Previous Version | Graphics & Text | Print | Product List | Glossary On
Versions: 1 2 3 4 5 6 7 8 9 10 11 12 13 14 15 16 17 18 19 20 21 22 23 24 25 26 27 28 29 30 31 32 33 34 35 36 37 38 39 40 41 42 43 44 45 46 47 48 49 50
000
ASUS43 KLOT 270421
RWRIL

ILLINOIS REGIONAL WEATHER ROUNDUP
NATIONAL WEATHER SERVICE CHICAGO/ROMEOVILLE IL
1100 PM CDT THU MAR 26 2015

NOTE: "FAIR" INDICATES FEW OR NO CLOUDS BELOW 12,000 FEET WITH NO
SIGNIFICANT WEATHER AND/OR OBSTRUCTIONS TO VISIBILITY.

* THESE STATIONS ARE NOT UNDER NWS QUALITY CONTROL. THEY ALSO MAY NOT
  REPORT WEATHER SUCH AS PRECIPITATION OR FOG.

ILZ001-002-007-009-015-016-024-270500-
NORTHWEST ILLINOIS

CITY           SKY/WX    TMP DP  RH WIND       PRES   REMARKS
MOLINE         PTCLDY    31  20  63 NW7       30.12R WCI  24
STERLING*      CLOUDY    34  21  60 NW8       30.10R WCI  27
SAVANNA*       CLOUDY    34  19  55 NW3       30.11S
$$

ILZ003-004-008-010-011-017-018-270500-
NORTH CENTRAL ILLINOIS

CITY           SKY/WX    TMP DP  RH WIND       PRES   REMARKS
ROCKFORD       CLOUDY    32  18  56 NE14      30.11R WCI  22
FREEPORT*      CLOUDY    32  19  59 N8        30.11R WCI  24
ROCHELLE*      CLOUDY    32  24  72 NE14      30.09R WCI  22
DE KALB*       CLOUDY    31  22  72 NE12      30.08R WCI  21
PERU*          CLOUDY    33  26  75 NW9       30.09S WCI  25
$$

ILZ005-006-012>014-019>023-270500-
NORTHEAST ILLINOIS

CITY           SKY/WX    TMP DP  RH WIND       PRES   REMARKS
CHICAGO-OHARE  CLOUDY    33  18  53 N10       30.06R WCI  25
CHICAGO-MIDWAY FLURRIES  36  25  64 N10       30.06R WCI  28
AURORA         CLOUDY    34  23  64 N9        30.07R WCI  27
LANSING*       CLOUDY    33  24  67 N13       30.06R WCI  24
JOLIET*        CLOUDY    36  22  57 CALM      30.06S
WAUKEGAN       CLOUDY    31  18  58 NW3       30.07R
DUPAGE AIRPORT CLOUDY    32  21  64 N9        30.06R WCI  24
KANKAKEE*      CLOUDY    35  26  68 NW6       30.06R WCI  30
WHEELING       CLOUDY    32  17  54 N13       30.09R WCI  22
MORRIS*        PTCLDY    32  23  70 N3        30.06S
ROMEOVILLE*    CLOUDY    34  20  56 N8        30.06S WCI  28
NORTHERLY ISL    N/A     33  23  67 MISG        N/A
$$

LMZ740>746-270500-
SOUTHERN LAKE MICHIGAN

STATION/POSITION SKY/WX   TEMP    WIND        PRES    VSBY  WAVE
                          AIR SEA DIR/SP/G                  HT/PER
                          (F)     (DEG/KT/KT) (MB)    (MI)  (FT/S)
HARRISON CRIB              33     350/ 21/ 25   N/A
BURNHAM HARBOR             33     350/ 15/ 17   N/A
CALUMET HARBOR             34     340/ 13/ 17 1016.7R
BURNS HARBOR               34      20/ 14/ 17 1017.6S
MICHIGAN CITY              32     340/ 19/ 21   N/A
$$

ILZ025>027-034>036-040-047-049-050-058-095>099-270500-
WEST-CENTRAL ILLINOIS

CITY           SKY/WX    TMP DP  RH WIND       PRES   REMARKS
QUINCY         CLOUDY    39  24  55 N14       30.10R WCI  31
GALESBURG*     CLOUDY    31  24  76 NW6       30.12R WCI  25
MACOMB*        CLOUDY    33  27  78 N9        30.14R WCI  25
JACKSONVILLE*  CLOUDY    41  29  64 N8        30.09R
PITTSFIELD*    CLOUDY    42  28  58 N8        30.09S
$$

ILZ028>032-037-038-041>044-048-051>054-059>061-270500-
CENTRAL ILLINOIS

CITY           SKY/WX    TMP DP  RH WIND       PRES   REMARKS
PONTIAC        CLOUDY    33  27  81 N5        30.08R WCI  28
BLOOMINGTON    CLEAR     33  27  79 N8        30.07R WCI  26
DECATUR        MOCLDY    39  24  55 NW12      30.05R WCI  32
PEORIA         MOCLDY    35  23  61 N8        30.10R WCI  29
LACON*         CLOUDY    33  22  63 N7        30.09R WCI  27
LINCOLN*       PTCLDY    36  27  68 NW5       30.08S WCI  32
SPRINGFIELD    MOCLDY    38  25  59 N13       30.08R WCI  30
TAYLORVILLE    CLOUDY    39  28  65 NW12      30.05S WCI  32
$$

ILZ033-039-045-046-055>057-062-063-270500-
EAST-CENTRAL ILLINOIS

CITY           SKY/WX    TMP DP  RH WIND       PRES   REMARKS
CHAMPAIGN      CLEAR     31  25  78 N8        30.03S WCI  23
DANVILLE*      CLEAR     32  26  78 N6        30.00S WCI  26
RANTOUL*       CLEAR     36  26  68 N9        30.03F WCI  29
MATTOON        CLEAR     35  29  78 NW3       30.02F
PARIS*         CLEAR     35  29  77 CALM      30.03S
$$

ILZ079-100>102-270500-
SOUTHWEST ILLINOIS

CITY           SKY/WX    TMP DP  RH WIND       PRES   REMARKS
ALTON          CLEAR     37  30  78 NW3       30.06S
BELLEVILLE     CLEAR     35  30  81 NW3       30.04F
CAHOKIA*       CLEAR     38  28  67 CALM      30.06F
SPARTA*        CLEAR     39  30  68 CALM      30.05F
$$

ILZ064>066-069>071-074>076-080>082-084>086-088>090-092>094-270500-
SOUTH-CENTRAL ILLINOIS

CITY           SKY/WX    TMP DP  RH WIND       PRES   REMARKS
CARBONDALE     CLEAR     34  30  85 S3        30.05S
CAIRO*         CLEAR     38  34  83 CALM      30.06F
EFFINGHAM*     CLEAR     36  28  72 W3        30.04F
MARION         CLEAR     36  34  93 CALM      30.06S
MT. VERNON     CLEAR     32  27  80 CALM      30.04S
CENTRALIA*     CLEAR     38  31  73 NW3       30.03F
SALEM*         CLEAR     39  31  72 CALM      30.04F
METROPOLIS*    CLEAR     35  35 100 CALM      30.05F
$$

ILZ067-068-072-073-078-083-087-091-270500-
SOUTHEAST ILLINOIS

CITY           SKY/WX    TMP DP  RH WIND       PRES   REMARKS
LAWRENCEVILLE  CLEAR     37  32  82 CALM      30.03F
FLORA*         CLEAR     38  32  77 NW5       30.03F WCI  35
FAIRFIELD*     CLEAR     39  31  75 CALM      30.03S
HARRISBURG*    CLEAR     37  35  93 CALM      30.06S
ROBINSON*      CLEAR     35  32  90 CALM      30.04S
CARMI*         CLEAR     37  36  94 CALM      30.04S
$$

ABBREVIATIONS USED IN REMARKS
   TC - TEMPERATURE IN CELSIUS
  WCI - WIND CHILL INDEX
   HX - HEAT INDEX
  VSB - VISIBILITY
$$



USA.gov is the U.S. government's official web portal to all federal, state and local government web resources and services.